Tracking 31027 objects as of 19-Jul-2025
HD Live streaming from Space Station
objects crossing your sky now

FREGAT DEB

Track FREGAT DEB now!
10-day predictions


NORAD ID: 45814
Int'l Code: 2011-037AY
Perigee: 1,118.9 km
Apogee: 2,695.6 km
Inclination: 51.1 °
Period: 124.9 minutes
Semi major axis: 8278 km
RCS: Unknown
Launch date: July 18, 2011
Source: Commonwealth of Independent States (former USSR) (CIS)
Launch site: TYURATAM MISSILE AND SPACE COMPLEX (TTMTR)

Note: This is SATELLITE DEBRIS
Your satellite tracking list
STARLINK-31009
Track 1 satellite(s)




NASA's NSSDC Master Catalog

Two Line Element Set (TLE):
1 45814U 11037AY  25199.77202296 -.00016380  00000-0 -11863+0 0  9993
2 45814  51.1013 340.1715 0952307  57.2779 311.6249 11.52634127213249
Source of the keplerian elements: AFSPC